Regional Weather Roundup
Issued by NWS Glasgow, MT

Home | Current Version | Previous Version | Text Only | Print | Product List | Glossary On
Versions: 1 2 3 4 5 6 7 8 9 10 11 12 13 14 15 16 17 18 19 20 21 22 23 24 25 26 27 28
000
ASUS45 KGGW 050115
RWRGGW
HOURLY REGIONAL WEATHER ROUNDUP FOR NORTHEAST MONTANA
NATIONAL WEATHER SERVICE GLASGOW MONTANA
700 PM MDT WED MAY 04 2016

NOTE: "FAIR" INDICATES FEW OR NO CLOUDS BELOW 12,000 FEET WITH NO
SIGNIFICANT WEATHER AND/OR OBSTRUCTIONS TO VISISBILITY.

NORTHEAST MONTANA


CITY           SKY/WX    TMP DP  RH WIND       PRES   REMARKS
GLASGOW        SUNNY     81  40  23 E10       29.82F
PLENTYWOOD       N/A     84  30  14 W9G20       N/A
WOLF POINT     SUNNY     83  44  25 SW3       29.83F
JORDAN           N/A     80  46  30 SW3       29.85F
WINNETT          N/A     78  43  28 S6G14       N/A
SIDNEY         SUNNY     79  43  27 S9        29.87S
GLENDIVE       SUNNY     79  41  25 S8        29.91F
SCOBEY           N/A     82  37  20 SW7       29.86F

FORT PECK REPORTS


CITY           SKY/WX    TMP DP  RH WIND       PRES   REMARKS
FORT PECK        N/A     82  39  21 SE5         N/A
THE PINES        N/A     84  33  16 SE3         N/A

SOUTHEAST MONTANA


CITY           SKY/WX    TMP DP  RH WIND       PRES   REMARKS
BILLINGS       MOSUNNY   81  31  16 SE7       29.92F
MILES CITY     SUNNY     82  33  17 VRB6      29.88F
BAKER          SUNNY     76  43  30 S7        29.95F
LIVINGSTON     CLOUDY    73  26  17 SW12      29.95F

CENTRAL MONTANA


CITY           SKY/WX    TMP DP  RH WIND       PRES   REMARKS
HAVRE          PTSUNNY   81  41  24 SW7       29.81F
LEWISTOWN      SUNNY     76  35  22 SW9       29.91F
GREAT FALLS    CLOUDY    77  35  21 NW9       29.87F
CUT BANK         N/A     73  32  22 W14       29.88S
HELENA         CLOUDY    81  28  14 W6        29.90F
BUTTE          CLOUDY    70  22  16 W8        30.01S
BOZEMAN        SUNNY     76  29  17 SW13      29.95F

WESTERN MONTANA


CITY           SKY/WX    TMP DP  RH WIND       PRES   REMARKS
MISSOULA       MOSUNNY   74  38  27 NW5       29.87F
KALISPELL      NOT AVBL

NORTH DAKOTA


CITY           SKY/WX    TMP DP  RH WIND       PRES   REMARKS
WILLISTON      SUNNY     81  37  20 SW7       29.86F
DICKINSON      CLEAR     74  37  26 SW9       29.93F
MINOT          CLEAR     84  37  18 SW9       29.87F
BISMARCK       CLEAR     73  47  39 S12       29.94F

SOUTHERN SASKATCHEWAN


CITY           SKY/WX    TMP DP  RH WIND       PRES   REMARKS
REGINA         MOSUNNY   84  36  17 W14       29.76F
ESTEVAN        MOSUNNY   81  37  21 SW12      29.84S
SWIFT CURRENT  SUNNY     82  28  14 W6        29.80F





USA.gov is the U.S. government's official web portal to all federal, state and local government web resources and services.